#timestamp,LO_Frequency,Hit,Temp,Hum 
1478134815.5,286047049.1,N,0.0,0.0
1478134835.3,286047046.7,N,0.0,0.0
1478134855.2,286047048.5,N,0.0,0.0
1478134875.0,286047046.6,N,0.0,0.0
1478134875.9,286047046.6,N,0.0,0.0
1478134895.8,286047049.2,N,0.0,0.0
1478134915.6,286047049.1,N,0.0,0.0
1478134935.4,286047048.8,N,0.0,0.0
1478134955.3,286047049.0,N,0.0,0.0
1478134975.1,286047049.1,N,0.0,0.0
1478134976.0,286047049.1,N,0.0,0.0
1478134995.8,286047046.2,N,0.0,0.0
1478135015.7,286047046.1,N,0.0,0.0
1478135035.5,286047046.5,N,0.0,0.0
1478135055.3,286047049.2,N,0.0,0.0
1478135075.2,286047049.2,N,0.0,0.0
1478135095.0,286047046.6,N,0.0,0.0
1478135095.9,286047046.6,N,0.0,0.0
1478135115.7,286047048.0,N,0.0,0.0
1478135135.6,286047048.2,N,0.0,0.0
1478135155.4,286047048.2,N,0.0,0.0
1478135175.2,286047047.8,N,0.0,0.0
1478135195.1,286047047.9,N,0.0,0.0
1478135196.0,286047047.9,N,0.0,0.0
1478135215.8,286047047.9,N,0.0,0.0
1478135235.7,286047047.9,N,0.0,0.0
1478135255.5,286047046.4,N,0.0,0.0
1478135275.3,286047047.3,N,0.0,0.0
1478135295.2,286047048.3,N,0.0,0.0
1478135315.9,286047048.1,N,0.0,0.0
1478135335.7,286047048.2,N,0.0,0.0
1478135355.6,286047048.1,N,0.0,0.0
1478135375.4,286047048.4,N,0.0,0.0
1478135395.2,286047048.7,N,0.0,0.0
1478135415.1,286047050.7,N,0.0,0.0
1478135416.0,286047050.7,N,0.0,0.0
1478135435.8,286047050.2,N,0.0,0.0
1478135455.6,286047049.6,N,0.0,0.0
1478135475.5,286047050.6,N,0.0,0.0
1478135495.3,286047050.2,N,0.0,0.0
1478135515.1,286047050.5,N,0.0,0.0
1478135535.9,286047050.8,N,0.0,0.0
1478135555.7,286047050.6,N,0.0,0.0
1478135575.6,286047049.1,N,0.0,0.0
1478135595.4,286047048.2,N,0.0,0.0
1478135615.2,286047050.1,N,0.0,0.0
1478135635.1,286047052.3,N,0.0,0.0
1478135636.0,286047052.3,N,0.0,0.0
1478135655.8,286047052.3,N,0.0,0.0
1478135675.6,286047049.4,N,0.0,0.0
1478135695.5,286047049.6,N,0.0,0.0
1478135715.3,286047049.7,N,0.0,0.0
1478135735.1,286047049.7,N,0.0,0.0
1478135755.9,286047052.4,N,0.0,0.0
1478135775.7,286047052.2,N,0.0,0.0
1478135795.5,286047052.4,N,0.0,0.0
1478135815.4,286047049.5,N,0.0,0.0
1478135835.2,286047049.9,N,0.0,0.0
1478135855.0,286047051.7,N,0.0,0.0
1478135855.9,286047051.7,N,0.0,0.0
1478135875.8,286047052.4,N,0.0,0.0
1478135895.6,286047049.6,N,0.0,0.0
1478135915.4,286047050.5,N,0.0,0.0
1478135935.3,286047052.2,N,0.0,0.0
1478135955.1,286047050.0,N,0.0,0.0
1478135975.9,286047049.8,N,0.0,0.0
1478135995.7,286047051.8,N,0.0,0.0
1478136015.5,286047051.7,N,0.0,0.0
1478136035.4,286047049.9,N,0.0,0.0
1478136055.2,286047049.9,N,0.0,0.0
1478136075.0,286047051.8,N,0.0,0.0
1478136075.9,286047051.8,N,0.0,0.0
1478136095.8,286047052.0,N,0.0,0.0
1478136115.6,286047052.3,N,0.0,0.0
1478136135.4,286047052.2,N,0.0,0.0
1478136155.3,286047054.0,N,0.0,0.0
1478136175.1,286047052.9,N,0.0,0.0
1478136195.8,286047049.7,N,0.0,0.0
1478136215.7,286047051.2,N,0.0,0.0
1478136235.5,286047052.4,N,0.0,0.0
1478136255.3,286047051.1,N,0.0,0.0
1478136275.2,286047051.4,N,0.0,0.0
1478136295.0,286047053.7,N,0.0,0.0
1478136295.9,286047053.7,N,0.0,0.0
1478136315.8,286047053.6,N,0.0,0.0
1478136335.6,286047051.0,N,0.0,0.0
1478136355.4,286047051.4,N,0.0,0.0
1478136375.3,286047053.8,N,0.0,0.0
1478136395.1,286047052.1,N,0.0,0.0
1478136396.0,286047052.1,N,0.0,0.0
1478136415.8,286047051.2,N,0.0,0.0
1478136435.7,286047051.2,N,0.0,0.0
1478136455.5,286047052.8,N,0.0,0.0
1478136475.3,286047052.9,N,0.0,0.0
1478136495.2,286047053.8,N,0.0,0.0
1478136515.9,286047053.8,N,0.0,0.0
1478136535.7,286047054.0,N,0.0,0.0
1478136555.6,286047051.5,N,0.0,0.0
1478136575.4,286047053.8,N,0.0,0.0
1478136595.2,286047055.1,N,0.0,0.0
1478136615.1,286047053.1,N,0.0,0.0
1478136616.0,286047053.1,N,0.0,0.0
1478136635.8,286047051.0,N,0.0,0.0
1478136655.7,286047051.2,N,0.0,0.0
1478136675.5,286047053.2,N,0.0,0.0
1478136695.3,286047053.4,N,0.0,0.0
1478136715.2,286047053.1,N,0.0,0.0
1478136735.9,286047052.9,N,0.0,0.0
1478136755.7,286047051.0,N,0.0,0.0
1478136775.6,286047054.8,N,0.0,0.0
1478136795.4,286047055.3,N,0.0,0.0
1478136815.2,286047055.5,N,0.0,0.0
1478136835.1,286047055.2,N,0.0,0.0
1478136836.0,286047055.2,N,0.0,0.0
1478136855.8,286047055.1,N,0.0,0.0
1478136875.6,286047050.9,N,0.0,0.0
1478136895.5,286047052.6,N,0.0,0.0
1478136915.3,286047053.2,N,0.0,0.0
1478136935.1,286047056.7,N,0.0,0.0
1478136955.9,286047054.2,N,0.0,0.0
1478136975.7,286047053.3,N,0.0,0.0
1478136995.5,286047054.3,N,0.0,0.0
1478137015.4,286047054.8,N,0.0,0.0
1478137035.2,286047054.1,N,0.0,0.0
1478137055.1,286047056.7,N,0.0,0.0
1478137056.0,286047056.7,N,0.0,0.0
1478137075.8,286047056.9,N,0.0,0.0
1478137095.6,286047054.6,N,0.0,0.0
1478137115.5,286047056.7,N,0.0,0.0
1478137135.3,286047054.4,N,0.0,0.0
1478137155.1,286047055.0,N,0.0,0.0
1478137175.9,286047054.8,N,0.0,0.0
1478137195.7,286047057.0,N,0.0,0.0
1478137215.5,286047057.2,N,0.0,0.0
1478137235.4,286047057.0,N,0.0,0.0
1478137255.2,286047054.5,N,0.0,0.0
1478137275.0,286047056.7,N,0.0,0.0
1478137275.9,286047056.7,N,0.0,0.0
1478137295.8,286047057.2,N,0.0,0.0
1478137315.6,286047057.2,N,0.0,0.0
1478137335.4,286047056.8,N,0.0,0.0
1478137355.3,286047056.8,N,0.0,0.0
1478137375.1,286047056.3,N,0.0,0.0
1478137395.9,286047056.2,N,0.0,0.0
1478137415.7,286047055.6,N,0.0,0.0
1478137435.5,286047055.0,N,0.0,0.0
1478137455.4,286047054.5,N,0.0,0.0
1478137475.2,286047057.1,N,0.0,0.0
1478137495.0,286047056.3,N,0.0,0.0
1478137495.9,286047056.3,N,0.0,0.0
1478137515.8,286047056.9,N,0.0,0.0
1478137535.6,286047056.1,N,0.0,0.0
1478137555.4,286047057.2,N,0.0,0.0
1478137575.3,286047058.4,N,0.0,0.0
1478137595.1,286047056.4,N,0.0,0.0
1478137615.8,286047060.1,N,0.0,0.0
1478137635.7,286047064.5,N,0.0,0.0
1478137655.5,286047061.9,N,0.0,0.0
1478137675.3,286047062.6,N,0.0,0.0
1478137695.2,286047059.5,N,0.0,0.0
1478137715.0,286047055.3,N,0.0,0.0
1478137715.9,286047055.3,N,0.0,0.0
1478137735.8,286047055.4,N,0.0,0.0
1478137755.6,286047054.5,N,0.0,0.0
1478137775.4,286047060.9,N,0.0,0.0
1478137795.3,286047056.9,N,0.0,0.0
1478137815.1,286047055.1,N,0.0,0.0
1478137816.0,286047055.1,N,0.0,0.0
1478137835.8,286047055.9,N,0.0,0.0
1478137855.7,286047056.1,N,0.0,0.0
1478137875.5,286047056.4,N,0.0,0.0
1478137895.3,286047056.5,N,0.0,0.0
1478137915.2,286047054.4,N,0.0,0.0
1478137935.0,286047058.3,N,0.0,0.0
1478137935.9,286047058.3,N,0.0,0.0
1478137955.7,286047058.0,N,0.0,0.0
1478137975.6,286047055.8,N,0.0,0.0
1478137995.4,286047058.9,N,0.0,0.0
1478138015.3,286047058.6,N,0.0,0.0
1478138035.1,286047057.9,N,0.0,0.0
1478138036.0,286047057.9,N,0.0,0.0
1478138055.8,286047057.6,N,0.0,0.0
1478138075.7,286047054.5,N,0.0,0.0
1478138095.5,286047061.0,N,0.0,0.0
1478138115.3,286047057.3,N,0.0,0.0
1478138135.2,286047057.6,N,0.0,0.0
1478138155.9,286047058.7,N,0.0,0.0
1478138175.7,286047058.6,N,0.0,0.0
1478138195.6,286047057.9,N,0.0,0.0
1478138215.4,286047057.5,N,0.0,0.0
1478138235.2,286047056.2,N,0.0,0.0
1478138255.1,286047061.1,N,0.0,0.0
1478138256.0,286047061.1,N,0.0,0.0
1478138275.8,286047061.1,N,0.0,0.0
1478138295.6,286047059.7,N,0.0,0.0
1478138315.5,286047060.8,N,0.0,0.0
1478138335.3,286047061.4,N,0.0,0.0
1478138355.2,286047056.5,N,0.0,0.0
1478138375.9,286047073.2,N,0.0,0.0
1478138395.7,286047051.3,N,0.0,0.0
